contact:dominique.lefevre@mio.osupytheas.fr, maurice.libes@osupytheas.fr, didier.mallarino@osupytheas.fr
Project:EMSO http://www.emso-fr.org/EMSO-France
Depth: 2436.0 m
Title:EMSO Ligure Ouest : Data MII capteur AQUADOPP
Date,Latitude,Longitude,X_East,Y_North,Z_Up,Amplitude_X,Amplitude_Y,Amplitude_Z,Batterie,SoundSpeed,Heading,Pitch,Roll,Pressure,TIS,Speed,Direction
, degrees North, degrees East, m.s-1, m.s-1,m.s-1, 1, 1, 1, Volt, m.s-1, degree, degree, degree, dbar, degree_C, m.s-1, degree
2022-07-16T00:04:03,42.805,6.029,0.018,0.004,-0.019,103.0,103.0,101.0,13.4,1505.2,325.8,-0.8,1.8,2471.023,13.28,0.018,77.5
2022-07-16T00:07:03,42.805,6.029,0.01,0.011,-0.027,103.0,103.0,100.0,13.3,1505.2,319.5,-0.8,1.9,2471.029,13.28,0.014,42.3
2022-07-16T00:10:03,42.805,6.029,0.048,-0.016,0.01,104.0,102.0,101.0,13.4,1505.2,325.7,-0.8,1.8,2470.974,13.28,0.05,108.4
2022-07-16T00:13:03,42.805,6.029,0.012,0.014,0.021,104.0,104.0,100.0,13.4,1505.2,325.6,-0.8,1.8,2470.959,13.28,0.018,40.6
2022-07-16T00:16:03,42.805,6.029,0.021,-0.004,-0.004,103.0,104.0,100.0,13.4,1505.2,324.1,-0.8,1.8,2470.971,13.28,0.021,100.8
2022-07-16T00:19:03,42.805,6.029,0.003,0.01,0.0,101.0,103.0,102.0,13.4,1505.2,322.2,-0.8,1.8,2470.979,13.28,0.01,16.7
2022-07-16T00:22:03,42.805,6.029,0.02,0.029,0.003,103.0,103.0,100.0,13.3,1505.2,327.5,-0.7,1.8,2470.974,13.28,0.035,34.6
2022-07-16T00:25:03,42.805,6.029,0.021,0.018,-0.002,102.0,105.0,101.0,13.4,1505.2,319.1,-0.8,1.8,2470.949,13.28,0.027,49.4
2022-07-16T00:28:03,42.805,6.029,0.028,0.025,0.01,104.0,102.0,100.0,13.4,1505.2,324.7,-0.7,1.8,2470.916,13.29,0.037,48.2
2022-07-16T00:31:03,42.805,6.029,0.001,0.019,-0.021,104.0,102.0,101.0,13.4,1505.2,321.3,-0.8,1.8,2470.941,13.29,0.019,3.0
2022-07-16T00:34:03,42.805,6.029,0.006,0.003,0.015,102.0,103.0,100.0,13.4,1505.2,321.4,-0.7,1.9,2470.919,13.29,0.006,63.4
2022-07-16T00:37:03,42.805,6.029,0.005,0.008,0.006,104.0,103.0,102.0,13.3,1505.2,319.4,-0.7,1.8,2470.891,13.29,0.009,32.0
2022-07-16T00:40:03,42.805,6.029,0.007,0.006,-0.033,104.0,103.0,100.0,13.4,1505.2,329.0,-0.7,1.8,2470.934,13.29,0.009,49.4
2022-07-16T00:43:03,42.805,6.029,0.018,0.012,0.012,103.0,104.0,102.0,13.4,1505.2,329.6,-0.8,1.9,2470.911,13.29,0.021,56.3
2022-07-16T00:46:03,42.805,6.029,0.013,0.01,-0.016,103.0,103.0,101.0,13.4,1505.2,329.5,-0.8,1.8,2470.931,13.29,0.016,52.4
2022-07-16T00:49:03,42.805,6.029,0.026,0.016,-0.003,102.0,102.0,101.0,13.4,1505.2,327.8,-0.8,1.9,2470.912,13.29,0.03,58.4
2022-07-16T00:52:03,42.805,6.029,0.007,0.0,-0.003,102.0,104.0,100.0,13.4,1505.2,319.0,-0.8,1.8,2470.98,13.29,0.007,90.0
2022-07-16T00:55:03,42.805,6.029,0.025,0.013,0.003,104.0,103.0,100.0,13.4,1505.2,322.9,-0.8,1.8,2470.895,13.29,0.028,62.5
2022-07-16T00:58:03,42.805,6.029,0.005,0.001,-0.009,105.0,103.0,101.0,13.4,1505.2,332.5,-0.8,1.8,2470.884,13.29,0.005,78.7
2022-07-16T01:04:03,42.805,6.029,0.018,0.023,-0.041,104.0,105.0,103.0,13.4,1505.2,324.8,-0.7,1.8,2470.944,13.28,0.029,38.0
2022-07-16T01:07:03,42.805,6.029,0.024,0.012,-0.012,103.0,104.0,101.0,13.4,1505.2,326.7,-0.8,1.8,2470.931,13.28,0.026,63.4
2022-07-16T01:10:03,42.805,6.029,0.021,0.008,-0.015,103.0,105.0,100.0,13.4,1505.2,328.3,-0.8,1.9,2470.964,13.28,0.022,69.1
2022-07-16T01:13:03,42.805,6.029,0.034,0.01,0.026,102.0,103.0,100.0,13.4,1505.2,323.4,-0.8,1.8,2470.939,13.28,0.035,73.6
2022-07-16T01:16:03,42.805,6.029,0.006,0.017,0.025,103.0,103.0,99.0,13.4,1505.2,323.6,-0.7,1.8,2470.904,13.28,0.018,19.4
2022-07-16T01:19:03,42.805,6.029,0.033,0.016,-0.006,103.0,102.0,102.0,13.4,1505.2,325.0,-0.8,1.8,2470.878,13.28,0.036,64.1
2022-07-16T01:22:03,42.805,6.029,0.016,0.02,0.016,103.0,103.0,100.0,13.3,1505.2,327.3,-0.7,1.8,2470.875,13.28,0.025,38.7
2022-07-16T01:25:03,42.805,6.029,0.022,0.002,-0.002,102.0,103.0,100.0,13.4,1505.2,323.8,-0.7,1.8,2470.868,13.28,0.022,84.8
2022-07-16T01:28:03,42.805,6.029,0.017,0.016,0.008,104.0,103.0,100.0,13.4,1505.2,329.5,-0.8,1.8,2470.857,13.29,0.023,46.7
2022-07-16T01:31:03,42.805,6.029,0.026,-0.014,-0.012,102.0,102.0,101.0,13.4,1505.2,333.6,-0.8,1.8,2470.876,13.29,0.029,118.3
2022-07-16T01:34:03,42.805,6.029,0.008,0.011,-0.006,103.0,103.0,100.0,13.4,1505.2,329.7,-0.8,1.8,2470.873,13.29,0.013,36.0
2022-07-16T01:37:03,42.805,6.029,0.005,0.002,-0.054,102.0,102.0,101.0,13.3,1505.2,333.6,-0.7,1.8,2470.862,13.29,0.005,68.2
2022-07-16T01:40:03,42.805,6.029,0.027,0.026,0.022,103.0,103.0,100.0,13.4,1505.2,319.7,-0.8,1.8,2470.908,13.29,0.037,46.1
2022-07-16T01:43:03,42.805,6.029,0.022,-0.01,-0.03,103.0,104.0,101.0,13.4,1505.2,331.5,-0.8,1.8,2470.901,13.29,0.024,114.4
2022-07-16T01:46:03,42.805,6.029,0.015,-0.015,-0.01,104.0,104.0,99.0,13.3,1505.2,329.6,-0.8,1.8,2470.874,13.29,0.021,135.0
2022-07-16T01:49:03,42.805,6.029,0.033,-0.029,-0.015,103.0,102.0,101.0,13.4,1505.2,333.1,-0.7,1.8,2470.819,13.29,0.043,131.3
2022-07-16T01:52:03,42.805,6.029,0.032,0.018,-0.017,103.0,103.0,100.0,13.4,1505.2,324.2,-0.8,1.8,2470.916,13.29,0.036,60.6
2022-07-16T01:55:03,42.805,6.029,0.009,0.022,-0.002,103.0,102.0,100.0,13.3,1505.2,328.2,-0.8,1.8,2470.82,13.29,0.023,22.2
2022-07-16T01:58:03,42.805,6.029,0.019,0.015,0.008,102.0,103.0,101.0,13.4,1505.2,332.4,-0.8,1.8,2470.849,13.29,0.024,51.7
2022-07-16T02:04:03,42.805,6.029,0.035,0.005,-0.021,103.0,103.0,101.0,13.4,1505.2,331.6,-0.8,1.8,2470.856,13.28,0.035,81.9
2022-07-16T02:07:03,42.805,6.029,0.004,0.003,-0.003,103.0,103.0,100.0,13.4,1505.2,322.6,-0.8,1.8,2470.878,13.28,0.005,53.1
2022-07-16T02:10:03,42.805,6.029,0.018,0.015,0.002,104.0,102.0,101.0,13.4,1505.2,328.7,-0.7,1.8,2470.851,13.28,0.023,50.2
2022-07-16T02:13:03,42.805,6.029,-0.003,0.011,0.004,103.0,103.0,101.0,13.3,1505.2,331.9,-0.7,1.8,2470.866,13.28,0.011,344.7
2022-07-16T02:16:03,42.805,6.029,0.019,0.019,-0.029,103.0,102.0,101.0,13.3,1505.2,324.2,-0.8,1.8,2470.869,13.28,0.026,45.0
2022-07-16T02:19:03,42.805,6.029,0.036,-0.011,-0.001,103.0,103.0,100.0,13.4,1505.2,326.7,-0.8,1.8,2470.907,13.28,0.037,107.0
2022-07-16T02:22:03,42.805,6.029,0.039,-0.004,-0.012,103.0,104.0,100.0,13.4,1505.2,334.1,-0.8,1.8,2470.863,13.29,0.039,95.9
2022-07-16T02:25:03,42.805,6.029,0.025,-0.006,-0.014,103.0,102.0,100.0,13.3,1505.2,333.6,-0.8,1.8,2470.826,13.29,0.025,103.5
2022-07-16T02:28:03,42.805,6.029,0.019,0.008,0.026,101.0,104.0,100.0,13.4,1505.2,326.5,-0.8,1.8,2470.857,13.29,0.02,67.2
2022-07-16T02:31:03,42.805,6.029,0.01,0.019,0.004,103.0,104.0,99.0,13.4,1505.2,321.3,-0.7,1.8,2470.835,13.29,0.021,27.8
2022-07-16T02:34:03,42.805,6.029,0.029,0.008,-0.012,102.0,103.0,102.0,13.3,1505.2,327.5,-0.7,1.9,2470.786,13.29,0.03,74.6
2022-07-16T02:37:03,42.805,6.029,0.003,0.001,0.025,101.0,103.0,101.0,13.3,1505.2,319.8,-0.8,1.8,2470.831,13.29,0.003,71.6
2022-07-16T02:40:03,42.805,6.029,0.033,0.026,0.022,103.0,102.0,101.0,13.4,1505.2,326.3,-0.7,1.8,2470.834,13.29,0.042,51.8
2022-07-16T02:43:03,42.805,6.029,0.009,0.013,-0.016,101.0,103.0,102.0,13.4,1505.2,327.3,-0.7,1.8,2470.841,13.29,0.015,34.7
2022-07-16T02:46:03,42.805,6.029,0.01,0.022,-0.004,102.0,104.0,100.0,13.3,1505.2,321.4,-0.8,1.8,2470.807,13.29,0.024,24.4
2022-07-16T02:49:03,42.805,6.029,0.031,0.008,-0.006,103.0,103.0,101.0,13.4,1505.2,323.9,-0.8,1.8,2470.824,13.29,0.032,75.5
2022-07-16T02:52:03,42.805,6.029,0.028,0.009,0.008,103.0,104.0,101.0,13.4,1505.2,324.5,-0.8,1.9,2470.84,13.29,0.029,72.2
2022-07-16T02:55:03,42.805,6.029,0.021,0.025,0.01,104.0,102.0,101.0,13.4,1505.2,322.8,-0.8,1.8,2470.778,13.29,0.032,40.0
2022-07-16T02:58:03,42.805,6.029,0.038,-0.003,-0.014,102.0,104.0,101.0,13.3,1505.2,330.3,-0.8,1.8,2470.831,13.29,0.038,94.5
2022-07-16T03:04:03,42.805,6.029,0.015,-0.003,-0.002,102.0,105.0,101.0,13.4,1505.2,320.3,-0.8,1.8,2470.848,13.28,0.015,101.3
2022-07-16T03:07:03,42.805,6.029,0.018,0.004,-0.015,103.0,103.0,101.0,13.4,1505.2,332.1,-0.8,1.8,2470.908,13.28,0.018,77.5
2022-07-16T03:10:03,42.805,6.029,0.024,0.01,0.008,102.0,102.0,101.0,13.3,1505.2,319.1,-0.8,1.8,2470.831,13.28,0.026,67.4
2022-07-16T03:13:03,42.805,6.029,0.024,-0.003,-0.02,103.0,102.0,101.0,13.4,1505.2,327.5,-0.8,1.8,2470.799,13.28,0.024,97.1
2022-07-16T03:16:03,42.805,6.029,0.014,0.018,-0.001,104.0,102.0,101.0,13.4,1505.2,327.0,-0.7,1.9,2470.819,13.29,0.022,37.9
2022-07-16T03:19:03,42.805,6.029,0.02,-0.01,0.015,104.0,102.0,100.0,13.4,1505.2,326.8,-0.8,1.8,2470.83,13.29,0.022,116.6
2022-07-16T03:22:03,42.805,6.029,0.009,0.018,0.0,104.0,102.0,102.0,13.4,1505.2,324.5,-0.7,1.8,2470.828,13.29,0.02,26.6
2022-07-16T03:25:03,42.805,6.029,0.041,0.001,0.006,104.0,103.0,100.0,13.4,1505.2,322.2,-0.8,1.8,2470.825,13.29,0.041,88.6
2022-07-16T03:28:03,42.805,6.029,0.028,-0.013,-0.01,102.0,104.0,101.0,13.4,1505.2,324.3,-0.8,1.8,2470.83,13.29,0.03,114.9
2022-07-16T03:31:03,42.805,6.029,0.03,0.005,-0.006,103.0,103.0,101.0,13.4,1505.2,319.8,-0.8,1.8,2470.854,13.29,0.03,80.5
2022-07-16T03:34:03,42.805,6.029,0.016,0.005,-0.034,103.0,104.0,101.0,13.4,1505.2,330.5,-0.8,1.8,2470.801,13.29,0.016,72.6
2022-07-16T03:37:03,42.805,6.029,0.016,-0.006,0.009,102.0,103.0,101.0,13.4,1505.2,323.6,-0.8,1.8,2470.831,13.29,0.017,110.6
2022-07-16T03:40:03,42.805,6.029,0.031,0.024,-0.01,103.0,104.0,101.0,13.4,1505.2,326.3,-0.7,1.8,2470.759,13.29,0.039,52.3
2022-07-16T03:43:03,42.805,6.029,0.024,0.002,-0.019,103.0,104.0,101.0,13.3,1505.2,332.1,-0.7,1.8,2470.814,13.29,0.024,85.2
2022-07-16T03:46:03,42.805,6.029,0.013,0.022,-0.01,102.0,102.0,102.0,13.4,1505.2,327.0,-0.8,1.8,2470.814,13.29,0.025,30.6
2022-07-16T03:49:03,42.805,6.029,0.009,0.023,0.009,102.0,104.0,100.0,13.3,1505.2,328.8,-0.8,1.9,2470.801,13.29,0.024,21.4
2022-07-16T03:52:03,42.805,6.029,0.022,0.009,-0.011,104.0,103.0,99.0,13.3,1505.2,324.9,-0.8,1.8,2470.806,13.29,0.023,67.8
2022-07-16T03:55:03,42.805,6.029,0.01,0.009,0.014,103.0,103.0,101.0,13.4,1505.2,325.6,-0.8,1.8,2470.82,13.29,0.013,48.0
2022-07-16T03:58:03,42.805,6.029,0.019,0.004,0.005,103.0,104.0,101.0,13.4,1505.2,324.7,-0.7,1.8,2470.806,13.29,0.019,78.1
2022-07-16T04:04:03,42.805,6.029,-0.008,0.023,-0.008,103.0,104.0,100.0,13.4,1505.2,329.5,-0.8,1.8,2470.855,13.28,0.024,340.8
2022-07-16T04:07:03,42.805,6.029,0.017,0.006,-0.005,103.0,103.0,100.0,13.4,1505.2,324.5,-0.8,1.8,2470.831,13.28,0.018,70.6
2022-07-16T04:10:03,42.805,6.029,-0.007,0.017,0.013,102.0,103.0,101.0,13.4,1505.2,324.1,-0.7,1.8,2470.79,13.28,0.018,337.6
2022-07-16T04:13:03,42.805,6.029,0.022,0.011,-0.003,103.0,103.0,100.0,13.4,1505.2,324.0,-0.8,1.8,2470.782,13.28,0.024,63.4
2022-07-16T04:16:03,42.805,6.029,0.021,0.004,-0.011,102.0,104.0,100.0,13.4,1505.2,332.9,-0.8,1.8,2470.831,13.28,0.021,79.2
2022-07-16T04:19:03,42.805,6.029,0.03,-0.001,-0.026,103.0,102.0,101.0,13.4,1505.2,326.6,-0.7,1.8,2470.801,13.29,0.03,91.9
2022-07-16T04:22:03,42.805,6.029,0.01,0.012,-0.02,103.0,104.0,100.0,13.4,1505.2,328.6,-0.8,1.8,2470.795,13.29,0.015,39.8
2022-07-16T04:25:03,42.805,6.029,0.032,0.004,-0.018,104.0,103.0,101.0,13.4,1505.2,327.9,-0.7,1.8,2470.803,13.29,0.032,82.9
2022-07-16T04:28:03,42.805,6.029,0.015,0.003,0.009,104.0,101.0,100.0,13.3,1505.2,328.4,-0.8,1.8,2470.815,13.29,0.015,78.7
2022-07-16T04:31:03,42.805,6.029,0.01,0.013,0.005,103.0,102.0,101.0,13.3,1505.2,324.6,-0.7,1.8,2470.775,13.29,0.016,37.6
2022-07-16T04:34:03,42.805,6.029,0.013,-0.001,-0.025,103.0,102.0,101.0,13.3,1505.2,323.1,-0.7,1.8,2470.796,13.29,0.013,94.4
2022-07-16T04:37:03,42.805,6.029,0.022,0.015,0.014,103.0,103.0,102.0,13.4,1505.2,323.9,-0.7,1.8,2470.771,13.29,0.026,55.7
2022-07-16T04:40:03,42.805,6.029,-0.004,0.023,-0.01,102.0,104.0,101.0,13.4,1505.2,329.5,-0.8,1.8,2470.822,13.29,0.023,350.1
2022-07-16T04:43:03,42.805,6.029,-0.004,0.005,-0.003,102.0,102.0,101.0,13.3,1505.2,320.8,-0.8,1.8,2470.81,13.29,0.006,321.3
2022-07-16T04:46:03,42.805,6.029,0.026,0.012,-0.003,102.0,104.0,100.0,13.4,1505.2,328.3,-0.7,1.8,2470.788,13.29,0.028,65.2
2022-07-16T04:49:03,42.805,6.029,0.011,0.017,0.0,102.0,103.0,101.0,13.4,1505.2,321.5,-0.8,1.8,2470.737,13.29,0.02,32.9
2022-07-16T04:52:03,42.805,6.029,0.028,0.008,0.025,103.0,103.0,100.0,13.3,1505.2,320.8,-0.7,1.8,2470.822,13.29,0.029,74.1
2022-07-16T04:55:03,42.805,6.029,0.014,-0.004,0.002,107.0,106.0,100.0,13.4,1505.2,319.7,-0.8,1.8,2470.8,13.29,0.014,105.9
2022-07-16T04:58:03,42.805,6.029,0.006,0.005,-0.011,103.0,103.0,100.0,13.4,1505.2,325.7,-0.8,1.8,2470.772,13.29,0.007,50.2
2022-07-16T05:04:03,42.805,6.029,0.023,0.021,-0.007,102.0,103.0,101.0,13.4,1505.2,321.4,-0.7,1.8,2470.872,13.28,0.031,47.6
2022-07-16T05:07:03,42.805,6.029,0.029,-0.006,-0.025,103.0,103.0,101.0,13.4,1505.2,329.0,-0.8,1.8,2470.853,13.28,0.029,101.7
2022-07-16T05:10:03,42.805,6.029,0.017,0.005,-0.019,104.0,104.0,101.0,13.4,1505.2,332.1,-0.8,1.8,2470.848,13.28,0.017,73.6
2022-07-16T05:13:03,42.805,6.029,0.013,0.006,0.02,103.0,102.0,101.0,13.4,1505.2,322.4,-0.8,1.8,2470.834,13.29,0.014,65.2
2022-07-16T05:16:03,42.805,6.029,0.002,0.022,-0.002,102.0,103.0,100.0,13.4,1505.2,321.1,-0.8,1.8,2470.818,13.29,0.022,5.2
2022-07-16T05:19:03,42.805,6.029,0.006,0.014,0.01,104.0,103.0,100.0,13.4,1505.2,322.3,-0.8,1.8,2470.859,13.29,0.015,23.2
2022-07-16T05:22:03,42.805,6.029,-0.006,-0.004,-0.038,104.0,103.0,100.0,13.4,1505.2,323.9,-0.8,1.8,2470.84,13.29,0.007,236.3
2022-07-16T05:25:03,42.805,6.029,0.0,0.012,-0.004,104.0,106.0,99.0,13.4,1505.2,324.7,-0.7,1.8,2470.848,13.29,0.012,0.0
2022-07-16T05:28:03,42.805,6.029,0.006,0.011,-0.022,103.0,102.0,101.0,13.4,1505.2,327.3,-0.8,1.8,2470.807,13.29,0.012,28.6
2022-07-16T05:31:03,42.805,6.029,0.026,0.0,-0.039,103.0,104.0,100.0,13.4,1505.2,325.0,-0.8,1.8,2470.843,13.29,0.026,90.0
2022-07-16T05:34:03,42.805,6.029,0.0,0.003,-0.021,102.0,103.0,102.0,13.4,1505.2,328.4,-0.8,1.8,2470.79,13.29,0.003,0.0
2022-07-16T05:37:03,42.805,6.029,0.027,0.007,0.0,103.0,103.0,101.0,13.4,1505.2,325.0,-0.8,1.8,2470.806,13.29,0.027,75.5
2022-07-16T05:40:03,42.805,6.029,0.033,0.019,-0.008,109.0,102.0,102.0,13.4,1505.2,322.5,-0.8,1.8,2470.841,13.29,0.038,60.1
2022-07-16T05:43:03,42.805,6.029,0.009,0.017,0.0,104.0,103.0,100.0,13.4,1505.2,328.2,-0.7,1.8,2470.842,13.29,0.019,27.9
2022-07-16T05:46:03,42.805,6.029,0.026,-0.006,-0.008,102.0,102.0,102.0,13.4,1505.2,325.0,-0.8,1.8,2470.831,13.29,0.026,103.0
2022-07-16T05:49:03,42.805,6.029,-0.006,0.014,-0.026,103.0,101.0,101.0,13.3,1505.2,328.3,-0.8,1.8,2470.826,13.29,0.015,336.8
2022-07-16T05:52:03,42.805,6.029,0.037,-0.013,-0.026,103.0,103.0,100.0,13.3,1505.2,322.8,-0.8,1.8,2470.834,13.29,0.039,109.4
2022-07-16T05:55:03,42.805,6.029,0.003,0.012,-0.019,102.0,103.0,101.0,13.4,1505.2,322.3,-0.8,1.8,2470.847,13.29,0.012,14.0
2022-07-16T05:58:03,42.805,6.029,0.021,0.015,-0.004,102.0,102.0,101.0,13.3,1505.2,329.7,-0.7,1.8,2470.868,13.29,0.025,54.5
2022-07-16T06:04:03,42.805,6.029,-0.001,0.024,0.0,104.0,102.0,101.0,13.4,1505.2,329.9,-0.8,1.8,2470.896,13.28,0.024,357.6
2022-07-16T06:07:03,42.805,6.029,0.03,0.006,-0.007,104.0,102.0,102.0,13.4,1505.2,328.5,-0.8,1.8,2470.889,13.28,0.03,78.7
2022-07-16T06:10:03,42.805,6.029,0.002,0.023,-0.001,103.0,104.0,101.0,13.4,1505.2,325.4,-0.8,1.8,2470.91,13.28,0.023,5.0
2022-07-16T06:13:03,42.805,6.029,0.035,0.006,0.014,105.0,104.0,100.0,13.4,1505.2,328.0,-0.8,1.8,2470.873,13.28,0.035,80.3
2022-07-16T06:16:03,42.805,6.029,0.021,0.012,0.018,103.0,106.0,101.0,13.4,1505.2,324.0,-0.7,1.8,2470.897,13.29,0.024,60.3
2022-07-16T06:19:03,42.805,6.029,-0.002,0.013,-0.001,103.0,104.0,103.0,13.4,1505.2,319.3,-0.8,1.8,2470.854,13.29,0.013,351.3
2022-07-16T06:22:03,42.805,6.029,0.017,0.001,-0.026,104.0,103.0,102.0,13.4,1505.2,334.1,-0.8,1.8,2470.86,13.29,0.017,86.6
2022-07-16T06:25:03,42.805,6.029,-0.014,0.001,-0.004,104.0,104.0,101.0,13.4,1505.2,321.7,-0.7,1.8,2470.908,13.29,0.014,274.1
2022-07-16T06:28:03,42.805,6.029,0.02,0.006,0.006,104.0,104.0,101.0,13.4,1505.2,325.6,-0.7,1.8,2470.838,13.29,0.02,73.3
2022-07-16T06:31:03,42.805,6.029,0.036,0.0,-0.019,103.0,104.0,101.0,13.4,1505.2,327.2,-0.8,1.8,2470.859,13.29,0.036,90.0
2022-07-16T06:34:03,42.805,6.029,0.0,0.01,-0.027,106.0,103.0,102.0,13.4,1505.2,330.3,-0.7,1.8,2470.853,13.29,0.01,0.0
2022-07-16T06:37:03,42.805,6.029,0.018,0.01,-0.022,105.0,103.0,101.0,13.4,1505.2,326.4,-0.7,1.8,2470.828,13.29,0.02,60.9
2022-07-16T06:40:03,42.805,6.029,0.028,0.003,-0.007,103.0,104.0,101.0,13.4,1505.2,333.1,-0.8,1.8,2470.847,13.29,0.028,83.9
2022-07-16T06:43:03,42.805,6.029,0.007,0.02,-0.02,102.0,104.0,101.0,13.3,1505.2,321.8,-0.8,1.8,2470.855,13.29,0.021,19.3
2022-07-16T06:46:03,42.805,6.029,0.011,0.019,0.001,104.0,104.0,100.0,13.4,1505.2,320.4,-0.7,1.8,2470.886,13.29,0.021,30.1
2022-07-16T06:49:03,42.805,6.029,0.016,0.007,0.025,103.0,103.0,103.0,13.4,1505.2,332.4,-0.8,1.8,2470.86,13.29,0.017,66.4
2022-07-16T06:52:03,42.805,6.029,0.014,0.016,0.003,104.0,107.0,102.0,13.4,1505.2,323.9,-0.7,1.8,2470.88,13.29,0.021,41.2
2022-07-16T06:55:03,42.805,6.029,0.014,0.025,0.0,103.0,104.0,102.0,13.4,1505.2,332.6,-0.8,1.8,2470.854,13.29,0.028,29.3
2022-07-16T06:58:03,42.805,6.029,0.001,0.015,-0.017,104.0,102.0,100.0,13.4,1505.2,330.5,-0.8,1.8,2470.857,13.29,0.015,3.8
2022-07-16T07:04:03,42.805,6.029,0.013,0.011,0.006,103.0,103.0,101.0,13.4,1505.2,326.1,-0.7,1.8,2470.895,13.28,0.017,49.8
2022-07-16T07:07:03,42.805,6.029,0.018,0.021,-0.004,104.0,104.0,100.0,13.4,1505.2,322.5,-0.7,1.8,2470.892,13.28,0.027,40.6
2022-07-16T07:10:03,42.805,6.029,-0.029,0.015,-0.024,103.0,103.0,101.0,13.4,1505.2,326.9,-0.8,1.8,2470.903,13.29,0.032,297.4
2022-07-16T07:13:03,42.805,6.029,0.012,0.016,-0.033,102.0,104.0,101.0,13.4,1505.2,325.5,-0.7,1.8,2470.903,13.29,0.02,36.9
2022-07-16T07:16:03,42.805,6.029,0.011,-0.006,-0.029,103.0,103.0,101.0,13.4,1505.2,330.6,-0.7,1.8,2470.882,13.29,0.012,118.6
2022-07-16T07:19:03,42.805,6.029,0.012,0.037,0.011,103.0,104.0,102.0,13.4,1505.2,326.1,-0.8,1.8,2470.856,13.29,0.038,18.0
2022-07-16T07:22:03,42.805,6.029,-0.004,0.024,0.003,104.0,104.0,100.0,13.3,1505.2,321.8,-0.7,1.8,2470.846,13.29,0.024,350.5
2022-07-16T07:25:03,42.805,6.029,-0.01,0.011,-0.024,104.0,103.0,101.0,13.4,1505.2,323.1,-0.8,1.8,2470.856,13.29,0.014,317.7
2022-07-16T07:28:03,42.805,6.029,0.005,0.009,0.002,103.0,104.0,101.0,13.4,1505.2,318.7,-0.8,1.8,2470.861,13.29,0.01,29.1
2022-07-16T07:31:03,42.805,6.029,0.005,0.012,-0.021,103.0,104.0,100.0,13.3,1505.2,329.1,-0.8,1.8,2470.91,13.29,0.013,22.6
2022-07-16T07:34:03,42.805,6.029,0.009,0.015,0.015,104.0,102.0,100.0,13.4,1505.2,327.6,-0.7,1.8,2470.84,13.29,0.017,31.0
2022-07-16T07:37:03,42.805,6.029,0.019,0.009,-0.002,103.0,102.0,102.0,13.3,1505.2,324.6,-0.8,1.8,2470.851,13.29,0.021,64.7
2022-07-16T07:40:03,42.805,6.029,0.028,0.007,0.011,104.0,102.0,101.0,13.4,1505.2,332.9,-0.8,1.8,2470.867,13.29,0.028,76.0
2022-07-16T07:43:03,42.805,6.029,0.012,0.012,0.0,103.0,103.0,101.0,13.3,1505.2,325.1,-0.8,1.8,2470.885,13.29,0.016,45.0
2022-07-16T07:46:03,42.805,6.029,0.014,0.005,0.013,104.0,103.0,100.0,13.4,1505.2,322.8,-0.8,1.8,2470.854,13.29,0.014,70.4
2022-07-16T07:49:03,42.805,6.029,0.026,0.019,0.004,102.0,104.0,101.0,13.4,1505.2,327.3,-0.7,1.8,2470.86,13.29,0.032,53.8
2022-07-16T07:52:03,42.805,6.029,0.018,0.01,0.014,103.0,102.0,101.0,13.3,1505.2,325.3,-0.8,1.8,2470.873,13.29,0.02,60.9
2022-07-16T07:55:03,42.805,6.029,0.023,-0.004,0.002,102.0,102.0,100.0,13.4,1505.2,329.0,-0.7,1.8,2470.863,13.29,0.023,99.9
2022-07-16T07:58:03,42.805,6.029,0.013,0.011,-0.002,103.0,105.0,100.0,13.3,1505.2,320.0,-0.7,1.8,2470.841,13.29,0.017,49.8
2022-07-16T08:04:03,42.805,6.029,-0.011,0.021,0.0,103.0,103.0,101.0,13.4,1505.2,330.8,-0.8,1.8,2470.896,13.28,0.023,332.4
2022-07-16T08:07:03,42.805,6.029,0.007,0.014,-0.007,103.0,102.0,101.0,13.3,1505.2,324.0,-0.8,1.8,2470.868,13.28,0.015,26.6
2022-07-16T08:10:03,42.805,6.029,0.032,0.016,0.009,103.0,104.0,101.0,13.3,1505.2,328.2,-0.8,1.8,2470.908,13.28,0.035,63.4
2022-07-16T08:13:03,42.805,6.029,0.029,0.008,-0.005,104.0,103.0,100.0,13.4,1505.2,325.2,-0.8,1.8,2470.887,13.28,0.03,74.6
2022-07-16T08:16:03,42.805,6.029,-0.002,0.011,0.017,103.0,103.0,101.0,13.4,1505.2,331.6,-0.7,1.9,2470.873,13.29,0.011,349.7
2022-07-16T08:19:03,42.805,6.029,0.03,0.022,0.01,102.0,104.0,102.0,13.4,1505.2,324.8,-0.7,1.8,2470.905,13.29,0.037,53.7
2022-07-16T08:22:03,42.805,6.029,-0.01,0.006,-0.023,104.0,102.0,101.0,13.4,1505.2,331.9,-0.8,1.8,2470.867,13.29,0.011,301.0
2022-07-16T08:25:03,42.805,6.029,0.014,0.006,-0.002,102.0,105.0,101.0,13.4,1505.2,324.9,-0.8,1.8,2470.866,13.29,0.015,66.8
2022-07-16T08:28:03,42.805,6.029,-0.001,0.019,-0.011,105.0,104.0,101.0,13.4,1505.2,327.5,-0.8,1.8,2470.857,13.29,0.019,357.0
2022-07-16T08:31:03,42.805,6.029,0.017,0.015,-0.005,104.0,104.0,101.0,13.3,1505.2,327.5,-0.8,1.8,2470.862,13.29,0.022,48.6
2022-07-16T08:34:03,42.805,6.029,0.011,0.022,0.003,104.0,104.0,101.0,13.4,1505.2,324.5,-0.7,1.8,2470.845,13.29,0.024,26.6
2022-07-16T08:37:03,42.805,6.029,0.002,0.022,-0.006,104.0,104.0,100.0,13.4,1505.2,320.4,-0.8,1.8,2470.837,13.29,0.022,5.2
2022-07-16T08:40:03,42.805,6.029,-0.003,0.006,0.006,104.0,103.0,100.0,13.4,1505.2,332.4,-0.8,1.8,2470.887,13.29,0.006,333.4
2022-07-16T08:43:03,42.805,6.029,0.002,0.012,-0.005,102.0,104.0,101.0,13.3,1505.2,327.9,-0.8,1.8,2470.867,13.29,0.012,9.5
2022-07-16T08:46:03,42.805,6.029,0.004,0.024,-0.009,103.0,103.0,100.0,13.4,1505.2,319.9,-0.8,1.8,2470.837,13.29,0.024,9.5
2022-07-16T08:49:03,42.805,6.029,0.007,0.013,-0.001,103.0,105.0,100.0,13.4,1505.2,324.9,-0.7,1.8,2470.857,13.29,0.014,28.3
2022-07-16T08:52:03,42.805,6.029,0.012,0.021,-0.012,103.0,103.0,102.0,13.4,1505.2,328.4,-0.8,1.8,2470.833,13.29,0.024,29.7
2022-07-16T08:55:03,42.805,6.029,0.021,0.029,0.033,103.0,103.0,102.0,13.3,1505.2,321.8,-0.8,1.9,2470.865,13.29,0.035,35.9
2022-07-16T08:58:03,42.805,6.029,0.017,0.014,0.012,102.0,103.0,101.0,13.4,1505.2,325.2,-0.8,1.8,2470.859,13.29,0.022,50.5
2022-07-16T09:04:03,42.805,6.029,0.011,0.009,-0.016,103.0,103.0,101.0,13.4,1505.2,325.6,-0.8,1.8,2470.881,13.28,0.014,50.7
2022-07-16T09:07:03,42.805,6.029,0.021,0.007,-0.006,102.0,103.0,101.0,13.4,1505.2,325.0,-0.8,1.8,2470.901,13.28,0.022,71.6
2022-07-16T09:10:03,42.805,6.029,0.004,0.036,-0.015,103.0,103.0,101.0,13.3,1505.2,325.7,-0.8,1.9,2470.861,13.28,0.036,6.3
2022-07-16T09:13:03,42.805,6.029,0.008,0.0,0.0,104.0,104.0,100.0,13.4,1505.2,324.3,-0.7,1.8,2470.852,13.29,0.008,90.0
2022-07-16T09:16:03,42.805,6.029,0.028,0.026,0.002,103.0,102.0,103.0,13.3,1505.2,324.2,-0.8,1.8,2470.878,13.29,0.038,47.1
2022-07-16T09:19:03,42.805,6.029,0.003,0.016,-0.01,102.0,104.0,101.0,13.3,1505.2,323.6,-0.7,1.8,2470.834,13.29,0.016,10.6
2022-07-16T09:22:03,42.805,6.029,-0.009,0.025,-0.008,103.0,104.0,101.0,13.4,1505.2,325.0,-0.8,1.9,2470.861,13.29,0.026,340.2
2022-07-16T09:25:03,42.805,6.029,0.013,0.025,-0.006,102.0,103.0,101.0,13.4,1505.2,332.1,-0.7,1.8,2470.838,13.29,0.028,27.5
2022-07-16T09:28:03,42.805,6.029,0.006,0.003,-0.01,104.0,103.0,100.0,13.3,1505.2,328.6,-0.8,1.8,2470.853,13.29,0.006,63.4
2022-07-16T09:31:03,42.805,6.029,0.017,0.02,-0.003,103.0,103.0,101.0,13.4,1505.2,333.6,-0.7,1.8,2470.809,13.29,0.026,40.4
2022-07-16T09:34:03,42.805,6.029,0.003,0.017,-0.001,103.0,103.0,101.0,13.3,1505.2,325.7,-0.8,1.8,2470.838,13.29,0.017,10.0
2022-07-16T09:37:03,42.805,6.029,0.008,0.032,-0.005,103.0,103.0,101.0,13.4,1505.2,319.8,-0.8,1.8,2470.851,13.29,0.032,14.0
2022-07-16T09:40:03,42.805,6.029,0.021,0.001,-0.008,102.0,103.0,102.0,13.4,1505.2,329.4,-0.7,1.8,2470.826,13.29,0.021,87.3
2022-07-16T09:43:03,42.805,6.029,0.006,0.0,-0.024,101.0,106.0,102.0,13.4,1505.2,326.3,-0.8,1.8,2470.832,13.29,0.006,90.0
2022-07-16T09:46:03,42.805,6.029,0.02,0.023,0.004,102.0,103.0,101.0,13.4,1505.2,325.8,-0.8,1.8,2470.803,13.29,0.03,41.0
2022-07-16T09:49:03,42.805,6.029,-0.002,0.027,-0.005,102.0,103.0,102.0,13.3,1505.2,329.2,-0.7,1.8,2470.851,13.29,0.027,355.8
2022-07-16T09:52:03,42.805,6.029,0.021,0.013,0.009,103.0,102.0,101.0,13.4,1505.2,323.2,-0.7,1.8,2470.816,13.29,0.024,58.2
2022-07-16T09:55:03,42.805,6.029,0.011,0.013,0.005,102.0,103.0,101.0,13.4,1505.2,323.6,-0.7,1.8,2470.876,13.29,0.017,40.2
2022-07-16T09:58:03,42.805,6.029,0.006,0.015,-0.02,104.0,102.0,99.0,13.4,1505.2,324.3,-0.7,1.9,2470.839,13.29,0.016,21.8
2022-07-16T10:04:03,42.805,6.029,-0.021,0.03,0.023,103.0,104.0,101.0,13.3,1505.2,323.7,-0.7,1.8,2470.868,13.28,0.036,325.0
2022-07-16T10:07:03,42.805,6.029,0.019,0.003,0.002,103.0,104.0,100.0,13.3,1505.2,330.8,-0.8,1.8,2470.861,13.28,0.019,81.0